,,Stat5,,Stat1,,Stat2,,Stat3,,Stat4,,Wind1,,Wind1,
time,status,PA1M_AVG,status,PR1M_SUM,status,RH1M_AVG,status,SR1M_AVG,status,TA1M_AVG,status,W1dAve1m,status,W1sAve1m,
2002-03-19, 00:00:00,VALID,919.12,VALID,0,VALID,91.4271,VALID,-0.0849042,VALID,20.7597,VALID,139,VALID,1.7524,
2002-03-19, 00:01:00,VALID,919.109,VALID,0,VALID,91.258,VALID,-0.101885,VALID,20.7428,VALID,142,VALID,2.23392,
2002-03-19, 00:02:00,VALID,919.074,VALID,0,VALID,90.9159,VALID,-0.101885,VALID,20.7495,VALID,145,VALID,1.59211,
2002-03-19, 00:03:00,VALID,919.069,VALID,0,VALID,91.0927,VALID,-0.0849042,VALID,20.7694,VALID,131,VALID,1.17817,
2002-03-19, 00:04:00,VALID,919.039,VALID,0,VALID,90.9096,VALID,-0.101885,VALID,20.7726,VALID,149,VALID,1.86123,
2002-03-19, 00:05:00,VALID,919.036,VALID,0,VALID,91.0901,VALID,-0.101885,VALID,20.7796,VALID,153,VALID,1.71368,
2002-03-19, 00:06:00,VALID,919.035,VALID,0,VALID,91.1499,VALID,-0.0679233,VALID,20.7788,VALID,144,VALID,1.45254,
2002-03-19, 00:07:00,VALID,919.027,VALID,0,VALID,91.2783,VALID,-0.0679233,VALID,20.7783,VALID,154,VALID,2.45436,
2002-03-19, 00:08:00,VALID,919.019,VALID,0,VALID,91.1804,VALID,-0.0849042,VALID,20.7952,VALID,148,VALID,2.47187,
2002-03-19, 00:09:00,VALID,919.01,VALID,0,VALID,91.0151,VALID,-0.0849042,VALID,20.7915,VALID,140,VALID,2.26016,
2002-03-19, 00:10:00,VALID,919.01,VALID,0,VALID,90.495,VALID,-0.0339617,VALID,20.7912,VALID,142,VALID,2.19511,
2002-03-19, 00:11:00,VALID,919,VALID,0,VALID,90.8078,VALID,0.0339617,VALID,20.8324,VALID,151,VALID,2.47821,
2002-03-19, 00:12:00,VALID,918.989,VALID,0,VALID,91.0685,VALID,0,VALID,20.8483,VALID,134,VALID,1.41738,
2002-03-19, 00:13:00,VALID,918.974,VALID,0,VALID,91.2224,VALID,0,VALID,20.829,VALID,135,VALID,1.6873,
2002-03-19, 00:14:00,VALID,918.949,VALID,0,VALID,91.4169,VALID,0.0169808,VALID,20.7904,VALID,138,VALID,1.30389,
2002-03-19, 00:15:00,VALID,918.939,VALID,0,VALID,91.6089,VALID,0.0169808,VALID,20.7576,VALID,146,VALID,1.37952,
2002-03-19, 00:16:00,VALID,918.926,VALID,0,VALID,91.7374,VALID,0,VALID,20.7552,VALID,131,VALID,0.961328,
2002-03-19, 00:17:00,VALID,918.935,VALID,0,VALID,91.6827,VALID,0,VALID,20.7129,VALID,148,VALID,1.61309,
2002-03-19, 00:18:00,VALID,918.919,VALID,0,VALID,91.82,VALID,0.0169808,VALID,20.6935,VALID,139,VALID,1.44111,
2002-03-19, 00:19:00,VALID,918.932,VALID,0,VALID,91.6814,VALID,0,VALID,20.6836,VALID,111,VALID,2.27837,
2002-03-19, 00:20:00,VALID,918.907,VALID,0,VALID,91.6242,VALID,0.0169808,VALID,20.6865,VALID,130,VALID,1.97812,
2002-03-19, 00:21:00,VALID,918.923,VALID,0,VALID,91.7374,VALID,0.0169808,VALID,20.7029,VALID,150,VALID,1.97441,
2002-03-19, 00:22:00,VALID,918.899,VALID,0,VALID,91.7628,VALID,0.0339617,VALID,20.6965,VALID,140,VALID,1.33173,
2002-03-19, 00:23:00,VALID,918.875,VALID,0,VALID,91.6636,VALID,0,VALID,20.6903,VALID,151,VALID,1.74034,
2002-03-19, 00:24:00,VALID,918.87,VALID,0,VALID,91.6789,VALID,0,VALID,20.6739,VALID,122,VALID,1.59551,
2002-03-19, 00:25:00,VALID,918.856,VALID,0,VALID,91.4932,VALID,0.0169808,VALID,20.6644,VALID,113,VALID,2.00195,
2002-03-19, 00:26:00,VALID,918.862,VALID,0,VALID,91.7259,VALID,0,VALID,20.6545,VALID,113,VALID,1.01122,
2002-03-19, 00:27:00,VALID,918.839,VALID,0,VALID,91.848,VALID,0,VALID,20.6453,VALID,152,VALID,1.59622,
2002-03-19, 00:28:00,VALID,918.833,VALID,0,VALID,92.0438,VALID,0,VALID,20.6326,VALID,125,VALID,1.28047,
2002-03-19, 00:29:00,VALID,918.811,VALID,0,VALID,92.007,VALID,0,VALID,20.5966,VALID,124,VALID,1.76055,
2002-03-19, 00:30:00,VALID,918.789,VALID,0,VALID,92.0794,VALID,0,VALID,20.5705,VALID,130,VALID,1.71114,
2002-03-19, 00:31:00,VALID,918.8,VALID,0,VALID,91.7272,VALID,0,VALID,20.574,VALID,138,VALID,2.12747,
2002-03-19, 00:32:00,VALID,918.778,VALID,0,VALID,91.0418,VALID,0,VALID,20.5774,VALID,144,VALID,1.77715,
2002-03-19, 00:33:00,VALID,918.783,VALID,0,VALID,91.1346,VALID,0.0169808,VALID,20.6063,VALID,121,VALID,1.83125,
2002-03-19, 00:34:00,VALID,918.782,VALID,0,VALID,91.1969,VALID,0,VALID,20.6222,VALID,122,VALID,1.66266,
2002-03-19, 00:35:00,VALID,918.796,VALID,0,VALID,90.9363,VALID,0,VALID,20.6154,VALID,123,VALID,2.14864,
2002-03-19, 00:36:00,VALID,918.784,VALID,0,VALID,91.0126,VALID,0.0169808,VALID,20.6219,VALID,107,VALID,1.93574,
2002-03-19, 00:37:00,VALID,918.79,VALID,0,VALID,91.1117,VALID,0.0339617,VALID,20.6289,VALID,106,VALID,1.63125,
2002-03-19, 00:38:00,VALID,918.797,VALID,0,VALID,91.6039,VALID,0,VALID,20.616,VALID,93,VALID,2.01142,
2002-03-19, 00:39:00,VALID,918.787,VALID,0,VALID,92.1189,VALID,0.0339617,VALID,20.5637,VALID,115,VALID,1.70189,
2002-03-19, 00:40:00,VALID,918.782,VALID,0,VALID,92.335,VALID,0.0169808,VALID,20.5282,VALID,109,VALID,1.80566,
2002-03-19, 00:41:00,VALID,918.764,VALID,0,VALID,92.4698,VALID,0,VALID,20.4959,VALID,112,VALID,1.77891,
2002-03-19, 00:42:00,VALID,918.749,VALID,0,VALID,92.7089,VALID,0,VALID,20.4671,VALID,108,VALID,1.87159,
2002-03-19, 00:43:00,VALID,918.74,VALID,0,VALID,92.527,VALID,0,VALID,20.4447,VALID,98,VALID,2.06209,
2002-03-19, 00:44:00,VALID,918.709,VALID,0,VALID,92.4635,VALID,-0.0169808,VALID,20.4507,VALID,99,VALID,1.26016,
2002-03-19, 00:45:00,VALID,918.692,VALID,0,VALID,92.3223,VALID,0,VALID,20.4574,VALID,116,VALID,2.00645,
2002-03-19, 00:46:00,VALID,918.682,VALID,0,VALID,91.923,VALID,0.0169808,VALID,20.4636,VALID,113,VALID,2.23738,
2002-03-19, 00:47:00,VALID,918.673,VALID,0,VALID,91.7145,VALID,0.0169808,VALID,20.4996,VALID,115,VALID,1.49938,
2002-03-19, 00:48:00,VALID,918.684,VALID,0,VALID,91.7755,VALID,0,VALID,20.532,VALID,91,VALID,1.79453,
2002-03-19, 00:49:00,VALID,918.671,VALID,0,VALID,91.9319,VALID,0.0169808,VALID,20.5352,VALID,111,VALID,1.26074,
2002-03-19, 00:50:00,VALID,918.669,VALID,0,VALID,91.7107,VALID,0,VALID,20.5223,VALID,111,VALID,2.31651,
2002-03-19, 00:51:00,VALID,918.668,VALID,0,VALID,91.7081,VALID,0.0169808,VALID,20.5121,VALID,130,VALID,1.7905,
2002-03-19, 00:52:00,VALID,918.66,VALID,0,VALID,91.361,VALID,0,VALID,20.5349,VALID,124,VALID,2.32305,
2002-03-19, 00:53:00,VALID,918.653,VALID,0,VALID,91.4881,VALID,0,VALID,20.5414,VALID,107,VALID,1.49355,
2002-03-19, 00:54:00,VALID,918.652,VALID,0,VALID,91.4818,VALID,0.0169808,VALID,20.5484,VALID,124,VALID,1.03145,
2002-03-19, 00:55:00,VALID,918.646,VALID,0,VALID,91.5187,VALID,0,VALID,20.5155,VALID,153,VALID,1.18832,
2002-03-19, 00:56:00,VALID,918.637,VALID,0,VALID,91.4182,VALID,0.0169808,VALID,20.5193,VALID,149,VALID,1.66055,
2002-03-19, 00:57:00,VALID,918.636,VALID,0,VALID,91.3368,VALID,0.0169808,VALID,20.4825,VALID,136,VALID,1.19375,
2002-03-19, 00:58:00,VALID,918.623,VALID,0,VALID,91.4373,VALID,0.0169808,VALID,20.4967,VALID,142,VALID,1.30869,
2002-03-19, 00:59:00,VALID,918.629,VALID,0,VALID,91.5161,VALID,0.0169808,VALID,20.4733,VALID,125,VALID,1.10979,
2002-03-19, 01:00:00,VALID,918.615,VALID,0,VALID,91.5021,VALID,-0.0169808,VALID,20.4576,VALID,130,VALID,1.9009,
2002-03-19, 01:01:00,VALID,918.627,VALID,0,VALID,91.2961,VALID,0,VALID,20.4482,VALID,141,VALID,1.74277,
2002-03-19, 01:02:00,VALID,918.614,VALID,0,VALID,91.155,VALID,-0.0169808,VALID,20.448,VALID,153,VALID,2.05168,
2002-03-19, 01:03:00,VALID,918.595,VALID,0,VALID,91.0037,VALID,0,VALID,20.4676,VALID,145,VALID,1.82751,
2002-03-19, 01:04:00,VALID,918.587,VALID,0,VALID,90.7392,VALID,0,VALID,20.4768,VALID,134,VALID,1.59629,
2002-03-19, 01:05:00,VALID,918.587,VALID,0,VALID,90.7951,VALID,0,VALID,20.4905,VALID,126,VALID,1.425,
2002-03-19, 01:06:00,VALID,918.58,VALID,0,VALID,90.7506,VALID,0,VALID,20.4808,VALID,114,VALID,1.58974,
2002-03-19, 01:07:00,VALID,918.575,VALID,0,VALID,90.7964,VALID,0,VALID,20.4743,VALID,130,VALID,1.23006,
2002-03-19, 01:08:00,VALID,918.562,VALID,0,VALID,90.8269,VALID,-0.0339617,VALID,20.4418,VALID,141,VALID,1.27188,
2002-03-19, 01:09:00,VALID,918.54,VALID,0,VALID,90.8829,VALID,0,VALID,20.4355,VALID,119,VALID,1.26484,
2002-03-19, 01:10:00,VALID,918.528,VALID,0,VALID,90.9808,VALID,0,VALID,20.4261,VALID,97,VALID,1.19211,
2002-03-19, 01:11:00,VALID,918.537,VALID,0,VALID,91.0164,VALID,0,VALID,20.3935,VALID,93,VALID,1.10773,
2002-03-19, 01:12:00,VALID,918.531,VALID,0,VALID,91.0304,VALID,-0.0169808,VALID,20.3776,VALID,109,VALID,1.76445,
2002-03-19, 01:13:00,VALID,918.514,VALID,0,VALID,91.1918,VALID,-0.0169808,VALID,20.3804,VALID,113,VALID,1.34727,
2002-03-19, 01:14:00,VALID,918.52,VALID,0,VALID,91.4322,VALID,0,VALID,20.3935,VALID,109,VALID,1.65545,
2002-03-19, 01:15:00,VALID,918.509,VALID,0,VALID,91.6356,VALID,0,VALID,20.3801,VALID,108,VALID,1.37726,
2002-03-19, 01:16:00,VALID,918.507,VALID,0,VALID,92.0222,VALID,0,VALID,20.3637,VALID,120,VALID,1.40313,
2002-03-19, 01:17:00,VALID,918.484,VALID,0,VALID,92.3694,VALID,0,VALID,20.3545,VALID,116,VALID,0.677539,
2002-03-19, 01:18:00,VALID,918.463,VALID,0,VALID,92.6618,VALID,0,VALID,20.3424,VALID,113,VALID,1.16266,
2002-03-19, 01:19:00,VALID,918.457,VALID,0,VALID,92.8462,VALID,-0.0169808,VALID,20.3066,VALID,113,VALID,1.42352,
2002-03-19, 01:20:00,VALID,918.435,VALID,0,VALID,93.0484,VALID,0,VALID,20.2541,VALID,100,VALID,1.37578,
2002-03-19, 01:21:00,VALID,918.427,VALID,0,VALID,93.1361,VALID,0,VALID,20.2221,VALID,125,VALID,0.747656,
2002-03-19, 01:22:00,VALID,918.418,VALID,0,VALID,93.2188,VALID,0,VALID,20.1992,VALID,104,VALID,1.17608,
2002-03-19, 01:23:00,VALID,918.389,VALID,0,VALID,93.1323,VALID,-0.0339617,VALID,20.1736,VALID,113,VALID,1.41283,
2002-03-19, 01:24:00,VALID,918.368,VALID,0,VALID,92.7267,VALID,0,VALID,20.1766,VALID,118,VALID,1.65625,
2002-03-19, 01:25:00,VALID,918.352,VALID,0,VALID,92.6249,VALID,0,VALID,20.1927,VALID,97,VALID,1.01387,
2002-03-19, 01:26:00,VALID,918.335,VALID,0,VALID,92.8793,VALID,0,VALID,20.2221,VALID,90,VALID,1.98417,
2002-03-19, 01:27:00,VALID,918.32,VALID,0,VALID,93.0001,VALID,0,VALID,20.2156,VALID,108,VALID,1.29585,
2002-03-19, 01:28:00,VALID,918.33,VALID,0,VALID,92.9963,VALID,-0.0169808,VALID,20.1863,VALID,105,VALID,1.36641,
2002-03-19, 01:29:00,VALID,918.318,VALID,0,VALID,93.0865,VALID,0,VALID,20.1935,VALID,117,VALID,1.06426,
2002-03-19, 01:30:00,VALID,918.308,VALID,0,VALID,93.0013,VALID,0,VALID,20.2067,VALID,108,VALID,1.44451,
2002-03-19, 01:31:00,VALID,918.307,VALID,0,VALID,93.215,VALID,-0.0339617,VALID,20.1935,VALID,89,VALID,1.10074,
2002-03-19, 01:32:00,VALID,918.311,VALID,0,VALID,93.4286,VALID,0,VALID,20.1808,VALID,102,VALID,1.19004,
2002-03-19, 01:33:00,VALID,918.315,VALID,0,VALID,93.5545,VALID,-0.0169808,VALID,20.1582,VALID,112,VALID,1.1502,
2002-03-19, 01:34:00,VALID,918.322,VALID,0,VALID,93.4833,VALID,-0.0339617,VALID,20.1286,VALID,101,VALID,1.44752,
2002-03-19, 01:35:00,VALID,918.308,VALID,0,VALID,93.5634,VALID,-0.0169808,VALID,20.1286,VALID,105,VALID,0.734786,
2002-03-19, 01:36:00,VALID,918.287,VALID,0,VALID,93.7287,VALID,-0.0169808,VALID,20.1383,VALID,98,VALID,1.06094,
2002-03-19, 01:37:00,VALID,918.3,VALID,0,VALID,93.8368,VALID,-0.0339617,VALID,20.1286,VALID,119,VALID,1.16211,
2002-03-19, 01:38:00,VALID,918.281,VALID,0,VALID,93.7084,VALID,-0.0169808,VALID,20.1092,VALID,122,VALID,1.28946,
2002-03-19, 01:39:00,VALID,918.275,VALID,0,VALID,93.6206,VALID,-0.0339617,VALID,20.1092,VALID,131,VALID,1.50247,
2002-03-19, 01:40:00,VALID,918.262,VALID,0,VALID,93.3167,VALID,-0.0169808,VALID,20.1289,VALID,143,VALID,1.41973,
2002-03-19, 01:41:00,VALID,918.251,VALID,0,VALID,92.8627,VALID,-0.0169808,VALID,20.1351,VALID,124,VALID,1.2748,
2002-03-19, 01:42:00,VALID,918.246,VALID,0,VALID,92.7839,VALID,0,VALID,20.1773,VALID,146,VALID,0.978766,
2002-03-19, 01:43:00,VALID,918.231,VALID,0,VALID,92.4317,VALID,-0.0169808,VALID,20.2032,VALID,129,VALID,1.26727,
2002-03-19, 01:44:00,VALID,918.213,VALID,0,VALID,92.3973,VALID,0,VALID,20.2355,VALID,113,VALID,1.4832,
2002-03-19, 01:45:00,VALID,918.221,VALID,0,VALID,91.8747,VALID,-0.0169808,VALID,20.2382,VALID,112,VALID,1.5707,
2002-03-19, 01:46:00,VALID,918.213,VALID,0,VALID,91.4246,VALID,0.0169808,VALID,20.2616,VALID,113,VALID,1.70433,
2002-03-19, 01:47:00,VALID,918.2,VALID,0,VALID,91.2046,VALID,-0.0169808,VALID,20.2899,VALID,114,VALID,1.37171,
2002-03-19, 01:48:00,VALID,918.183,VALID,0,VALID,91.1232,VALID,-0.0339617,VALID,20.3294,VALID,111,VALID,1.49082,
2002-03-19, 01:49:00,VALID,918.186,VALID,0,VALID,91.0176,VALID,-0.0169808,VALID,20.3453,VALID,95,VALID,1.54434,
2002-03-19, 01:50:00,VALID,918.179,VALID,0,VALID,90.3831,VALID,0,VALID,20.3717,VALID,102,VALID,1.73958,
2002-03-19, 01:51:00,VALID,918.167,VALID,0,VALID,90.7697,VALID,0,VALID,20.4032,VALID,94,VALID,1.29749,
2002-03-19, 01:52:00,VALID,918.143,VALID,0,VALID,91.0774,VALID,0,VALID,20.3965,VALID,88,VALID,1.93359,
2002-03-19, 01:53:00,VALID,918.138,VALID,0,VALID,91.3584,VALID,0,VALID,20.3672,VALID,90,VALID,2.10117,
2002-03-19, 01:54:00,VALID,918.109,VALID,0,VALID,91.8048,VALID,0,VALID,20.3192,VALID,80,VALID,1.67808,
2002-03-19, 01:55:00,VALID,918.105,VALID,0,VALID,91.9485,VALID,0.0169808,VALID,20.2834,VALID,98,VALID,1.71114,
2002-03-19, 01:56:00,VALID,918.083,VALID,0,VALID,92.2117,VALID,0,VALID,20.2549,VALID,96,VALID,1.28906,
2002-03-19, 01:57:00,VALID,918.081,VALID,0,VALID,92.0858,VALID,0,VALID,20.2191,VALID,91,VALID,1.85703,
2002-03-19, 01:58:00,VALID,918.066,VALID,0,VALID,92.0883,VALID,0.0169808,VALID,20.2057,VALID,87,VALID,1.90084,
2002-03-19, 01:59:00,VALID,918.06,VALID,0,VALID,92.2842,VALID,0,VALID,20.1994,VALID,89,VALID,2.2315,
2002-03-19, 02:00:00,VALID,918.051,VALID,0,VALID,92.41,VALID,0,VALID,20.1932,VALID,79,VALID,1.86387,
2002-03-19, 02:01:00,VALID,918.058,VALID,0,VALID,92.5219,VALID,-0.0169808,VALID,20.1776,VALID,97,VALID,1.52305,
2002-03-19, 02:02:00,VALID,918.06,VALID,0,VALID,92.6415,VALID,-0.0169808,VALID,20.1478,VALID,101,VALID,1.13762,
2002-03-19, 02:03:00,VALID,918.053,VALID,0,VALID,92.7903,VALID,0,VALID,20.1316,VALID,94,VALID,1.01172,
2002-03-19, 02:04:00,VALID,918.049,VALID,0,VALID,92.8602,VALID,0,VALID,20.1055,VALID,92,VALID,1.22617,
2002-03-19, 02:05:00,VALID,918.034,VALID,0,VALID,92.9314,VALID,0,VALID,20.0966,VALID,90,VALID,1.2209,
2002-03-19, 02:06:00,VALID,918.018,VALID,0,VALID,93.0459,VALID,-0.0169808,VALID,20.0767,VALID,109,VALID,1.376,
2002-03-19, 02:07:00,VALID,918.024,VALID,0,VALID,93.0217,VALID,-0.0169808,VALID,20.0449,VALID,109,VALID,1.04215,
2002-03-19, 02:08:00,VALID,918.026,VALID,0,VALID,93.3142,VALID,0.0339617,VALID,20.0382,VALID,90,VALID,1.0916,
2002-03-19, 02:09:00,VALID,918.019,VALID,0,VALID,93.3587,VALID,0,VALID,20.0088,VALID,132,VALID,1.1918,
2002-03-19, 02:10:00,VALID,918.005,VALID,0,VALID,93.3498,VALID,0.0169808,VALID,19.9798,VALID,119,VALID,1.33534,
2002-03-19, 02:11:00,VALID,917.974,VALID,0,VALID,93.2887,VALID,0,VALID,19.9572,VALID,123,VALID,1.10711,
2002-03-19, 02:12:00,VALID,917.941,VALID,0,VALID,93.1934,VALID,0.0339617,VALID,19.9408,VALID,128,VALID,2.00059,
2002-03-19, 02:13:00,VALID,917.907,VALID,0,VALID,92.9581,VALID,0.0339617,VALID,19.9499,VALID,127,VALID,1.46797,
2002-03-19, 02:14:00,VALID,917.883,VALID,0,VALID,92.7992,VALID,0.0509425,VALID,19.9731,VALID,130,VALID,1.61078,
2002-03-19, 02:15:00,VALID,917.869,VALID,0,VALID,92.5245,VALID,0.0679233,VALID,20.0123,VALID,129,VALID,1.64638,
2002-03-19, 02:16:00,VALID,917.853,VALID,0,VALID,92.2435,VALID,0.0679233,VALID,20.0444,VALID,134,VALID,1.81836,
2002-03-19, 02:17:00,VALID,917.83,VALID,0,VALID,91.923,VALID,0.0339617,VALID,20.0799,VALID,124,VALID,1.49512,
2002-03-19, 02:18:00,VALID,917.81,VALID,0,VALID,91.5492,VALID,0.0339617,VALID,20.1187,VALID,109,VALID,1.46074,
2002-03-19, 02:19:00,VALID,917.783,VALID,0,VALID,91.1931,VALID,0.0679233,VALID,20.1472,VALID,132,VALID,1.59889,
2002-03-19, 02:20:00,VALID,917.762,VALID,0,VALID,90.9096,VALID,0.0509425,VALID,20.1863,VALID,127,VALID,1.77012,
2002-03-19, 02:21:00,VALID,917.743,VALID,0,VALID,90.7938,VALID,0.0339617,VALID,20.2221,VALID,121,VALID,1.6916,
2002-03-19, 02:22:00,VALID,917.72,VALID,0,VALID,90.8574,VALID,0.0679233,VALID,20.2444,VALID,115,VALID,1.77083,
2002-03-19, 02:23:00,VALID,917.712,VALID,0,VALID,90.6438,VALID,0,VALID,20.2482,VALID,110,VALID,1.86637,
2002-03-19, 02:24:00,VALID,917.717,VALID,0,VALID,90.6362,VALID,0.0849042,VALID,20.2409,VALID,120,VALID,1.45723,
2002-03-19, 02:25:00,VALID,917.702,VALID,0,VALID,90.453,VALID,0.0339617,VALID,20.2412,VALID,115,VALID,1.94727,
2002-03-19, 02:26:00,VALID,917.696,VALID,0,VALID,90.2534,VALID,-0.0679233,VALID,20.2621,VALID,103,VALID,1.70533,
2002-03-19, 02:27:00,VALID,917.698,VALID,0,VALID,90.453,VALID,-0.0509425,VALID,20.275,VALID,104,VALID,1.20066,
2002-03-19, 02:28:00,VALID,917.694,VALID,0,VALID,90.4022,VALID,-0.0509425,VALID,20.2688,VALID,105,VALID,1.66855,
2002-03-19, 02:29:00,VALID,917.7,VALID,0,VALID,90.3793,VALID,-0.0339617,VALID,20.2686,VALID,92,VALID,1.56387,
2002-03-19, 02:30:00,VALID,917.673,VALID,0,VALID,90.5586,VALID,-0.0679233,VALID,20.2656,VALID,115,VALID,1.248,
2002-03-19, 02:31:00,VALID,917.659,VALID,0,VALID,90.5688,VALID,-0.0849042,VALID,20.2586,VALID,115,VALID,1.67373,
2002-03-19, 02:32:00,VALID,917.64,VALID,0,VALID,90.3386,VALID,-0.0679233,VALID,20.2459,VALID,126,VALID,1.14688,
2002-03-19, 02:33:00,VALID,917.624,VALID,0,VALID,90.6603,VALID,-0.0849042,VALID,20.2559,VALID,119,VALID,1.12773,
2002-03-19, 02:34:00,VALID,917.63,VALID,0,VALID,90.6095,VALID,-0.0849042,VALID,20.2554,VALID,121,VALID,1.59836,
2002-03-19, 02:35:00,VALID,917.615,VALID,0,VALID,90.6603,VALID,-0.0679233,VALID,20.2363,VALID,115,VALID,1.46669,
2002-03-19, 02:36:00,VALID,917.598,VALID,0,VALID,90.8155,VALID,-0.0169808,VALID,20.2231,VALID,112,VALID,1.13262,
2002-03-19, 02:37:00,VALID,917.602,VALID,0,VALID,90.8053,VALID,-0.0679233,VALID,20.2233,VALID,123,VALID,1.20762,
2002-03-19, 02:38:00,VALID,917.598,VALID,0,VALID,90.467,VALID,-0.0679233,VALID,20.2104,VALID,111,VALID,1.02364,
2002-03-19, 02:39:00,VALID,917.589,VALID,0,VALID,90.0932,VALID,-0.0849042,VALID,20.2141,VALID,121,VALID,1.3602,
2002-03-19, 02:40:00,VALID,917.566,VALID,0,VALID,89.3429,VALID,-0.0509425,VALID,20.2164,VALID,119,VALID,1.23926,
2002-03-19, 02:41:00,VALID,917.541,VALID,0,VALID,88.9462,VALID,0.0169808,VALID,20.2867,VALID,122,VALID,1.01855,
2002-03-19, 02:42:00,VALID,917.523,VALID,0,VALID,88.599,VALID,0,VALID,20.3316,VALID,127,VALID,0.994391,
2002-03-19, 02:43:00,VALID,917.508,VALID,0,VALID,88.2786,VALID,0.0339617,VALID,20.3674,VALID,127,VALID,1.32545,
2002-03-19, 02:44:00,VALID,917.499,VALID,0,VALID,87.9594,VALID,0.0339617,VALID,20.4127,VALID,138,VALID,0.900195,
2002-03-19, 02:45:00,VALID,917.488,VALID,0,VALID,87.976,VALID,0.0679233,VALID,20.445,VALID,139,VALID,1.25371,
2002-03-19, 02:46:00,VALID,917.463,VALID,0,VALID,88.0701,VALID,0.0509425,VALID,20.4477,VALID,147,VALID,1.46114,
2002-03-19, 02:47:00,VALID,917.445,VALID,0,VALID,88.201,VALID,0.0339617,VALID,20.4639,VALID,148,VALID,1.45518,
2002-03-19, 02:48:00,VALID,917.429,VALID,0,VALID,88.243,VALID,0.0339617,VALID,20.4576,VALID,146,VALID,1.60586,
2002-03-19, 02:49:00,VALID,917.422,VALID,0,VALID,88.3638,VALID,0.0339617,VALID,20.4574,VALID,142,VALID,1.65117,
2002-03-19, 02:50:00,VALID,917.431,VALID,0,VALID,88.5266,VALID,0.101885,VALID,20.4474,VALID,123,VALID,0.964143,
2002-03-19, 02:51:00,VALID,917.452,VALID,0,VALID,88.4871,VALID,0.0169808,VALID,20.4385,VALID,135,VALID,1.26131,
2002-03-19, 02:52:00,VALID,917.445,VALID,0,VALID,87.9569,VALID,0.0509425,VALID,20.4447,VALID,137,VALID,1.54668,
2002-03-19, 02:53:00,VALID,917.423,VALID,0,VALID,87.9658,VALID,0.0509425,VALID,20.4604,VALID,137,VALID,1.56172,
2002-03-19, 02:54:00,VALID,917.414,VALID,0,VALID,87.6314,VALID,0.0679233,VALID,20.4765,VALID,131,VALID,1.45292,
2002-03-19, 02:55:00,VALID,917.405,VALID,0,VALID,87.3147,VALID,0.0339617,VALID,20.5059,VALID,127,VALID,2.19716,
2002-03-19, 02:56:01,VALID,917.406,VALID,0,VALID,87.1825,VALID,-0.0169808,VALID,20.5526,VALID,133,VALID,1.00859,
2002-03-19, 02:57:00,VALID,917.399,VALID,0,VALID,87.2944,VALID,0,VALID,20.5725,VALID,113,VALID,0.974414,
2002-03-19, 02:58:00,VALID,917.407,VALID,0,VALID,87.4076,VALID,-0.0509425,VALID,20.5691,VALID,110,VALID,1.35276,
2002-03-19, 02:59:00,VALID,917.409,VALID,0,VALID,87.6364,VALID,-0.0849042,VALID,20.5362,VALID,111,VALID,1.39371,
2002-03-19, 03:00:00,VALID,917.408,VALID,0,VALID,87.7598,VALID,-0.0679233,VALID,20.5201,VALID,118,VALID,1.5252,
2002-03-19, 03:01:00,VALID,917.408,VALID,0,VALID,87.9238,VALID,-0.0339617,VALID,20.4915,VALID,120,VALID,1.1748,
2002-03-19, 03:02:00,VALID,917.404,VALID,0,VALID,87.9849,VALID,-0.0849042,VALID,20.485,VALID,105,VALID,1.25561,
2002-03-19, 03:03:00,VALID,917.395,VALID,0,VALID,88.1197,VALID,-0.0679233,VALID,20.4689,VALID,91,VALID,1.39679,
2002-03-19, 03:04:01,VALID,917.4,VALID,0,VALID,88.5749,VALID,-0.0849042,VALID,20.4495,VALID,92,VALID,0.971484,
2002-03-19, 03:05:00,VALID,917.387,VALID,0,VALID,88.3422,VALID,-0.0679233,VALID,20.4196,VALID,128,VALID,1.32012,
2002-03-19, 03:06:00,VALID,917.375,VALID,0,VALID,88.5355,VALID,-0.0849042,VALID,20.414,VALID,113,VALID,1.18209,
2002-03-19, 03:07:00,VALID,916.942,VALID,0,VALID,88.7046,VALID,-0.101885,VALID,20.3948,VALID,122,VALID,0.868421,
2002-03-19, 03:08:01,VALID,917.347,VALID,0,VALID,88.9615,VALID,-0.0679233,VALID,20.3819,VALID,82,VALID,0.736523,
2002-03-19, 03:09:00,VALID,917.357,VALID,0,VALID,89.2654,VALID,-0.0339617,VALID,20.3493,VALID,80,VALID,1.31348,
2002-03-19, 03:10:00,VALID,917.352,VALID,0,VALID,89.8541,VALID,-0.0339617,VALID,20.281,VALID,85,VALID,1.02652,
2002-03-19, 03:11:00,VALID,917.352,VALID,0,VALID,90.0817,VALID,0.0339617,VALID,20.2482,VALID,87,VALID,1.07175,
2002-03-19, 03:12:00,VALID,917.342,VALID,0,VALID,90.4149,VALID,-0.0169808,VALID,20.193,VALID,100,VALID,1.05898,
2002-03-19, 03:13:00,VALID,917.334,VALID,0,VALID,90.9197,VALID,-0.0169808,VALID,20.1443,VALID,89,VALID,1.14941,
2002-03-19, 03:14:00,VALID,917.339,VALID,0,VALID,91.2097,VALID,0,VALID,20.0956,VALID,115,VALID,0.835136,
2002-03-19, 03:15:00,VALID,917.331,VALID,0,VALID,91.4665,VALID,0,VALID,20.0705,VALID,126,VALID,1.04544,
2002-03-19, 03:16:01,VALID,917.326,VALID,0,VALID,91.6573,VALID,0,VALID,20.0312,VALID,107,VALID,1.02266,
2002-03-19, 03:17:00,VALID,917.305,VALID,0,VALID,91.8849,VALID,0.0169808,VALID,20.0245,VALID,111,VALID,0.965625,
2002-03-19, 03:18:01,VALID,917.295,VALID,0,VALID,92.129,VALID,0.0169808,VALID,20.0021,VALID,111,VALID,1.60337,
2002-03-19, 03:19:00,VALID,917.273,VALID,0,VALID,92.4164,VALID,-0.0169808,VALID,19.9733,VALID,127,VALID,1.53557,
2002-03-19, 03:20:01,VALID,917.266,VALID,0,VALID,92.6771,VALID,-0.0169808,VALID,19.941,VALID,115,VALID,1.49277,
2002-03-19, 03:21:00,VALID,917.257,VALID,0,VALID,92.9479,VALID,0.0169808,VALID,19.9249,VALID,133,VALID,0.769531,
2002-03-19, 03:22:00,VALID,917.234,VALID,0,VALID,93.1514,VALID,0,VALID,19.8858,VALID,117,VALID,1.3125,
2002-03-19, 03:23:00,VALID,917.222,VALID,0,VALID,93.332,VALID,0,VALID,19.8535,VALID,112,VALID,1.21361,
2002-03-19, 03:24:00,VALID,917.213,VALID,0,VALID,93.5011,VALID,0.0339617,VALID,19.815,VALID,114,VALID,1.40977,
2002-03-19, 03:25:00,VALID,917.208,VALID,0,VALID,93.6956,VALID,-0.0169808,VALID,19.7763,VALID,115,VALID,1.3248,
2002-03-19, 03:26:00,VALID,917.193,VALID,0,VALID,93.7287,VALID,0,VALID,19.7472,VALID,129,VALID,1.13942,
2002-03-19, 03:27:00,VALID,917.191,VALID,0,VALID,93.7236,VALID,0,VALID,19.7281,VALID,120,VALID,1.82052,
2002-03-19, 03:28:01,VALID,917.181,VALID,0,VALID,93.6829,VALID,0.0169808,VALID,19.7278,VALID,113,VALID,1.7209,
2002-03-19, 03:29:00,VALID,917.175,VALID,0,VALID,93.613,VALID,-0.0169808,VALID,19.7281,VALID,131,VALID,1.49766,
2002-03-19, 03:30:00,VALID,917.161,VALID,0,VALID,93.5685,VALID,0.0169808,VALID,19.7251,VALID,122,VALID,1.28786,
2002-03-19, 03:31:00,VALID,917.152,VALID,0,VALID,93.4693,VALID,0,VALID,19.7248,VALID,120,VALID,1.32093,
2002-03-19, 03:32:01,VALID,917.128,VALID,0,VALID,93.2493,VALID,0,VALID,19.7377,VALID,122,VALID,1.16348,
2002-03-19, 03:33:00,VALID,917.092,VALID,0,VALID,93.0382,VALID,-0.0169808,VALID,19.7536,VALID,105,VALID,1.80371,
2002-03-19, 03:34:00,VALID,917.068,VALID,0,VALID,92.7318,VALID,0.0169808,VALID,19.783,VALID,108,VALID,1.60617,
2002-03-19, 03:35:00,VALID,917.042,VALID,0,VALID,92.4546,VALID,0,VALID,19.8314,VALID,113,VALID,1.71012,